Hourly Data Report for September 05, 2017

All times are specified in Local Standard Time (LST). Add 1 hour to adjust for Daylight Saving Time where and when it is observed.

GRAND MANAN SAR CS
NEW BRUNSWICK

44°42'43.400" N
66°48'06.900" W
78.20 m
8101925
71030
XGM

Download Data

Hourly Data (September 2017)
Hourly Data Report for September 5, 2017
Temp Definition
°C
Dew Point Temp Definition
°C
Rel Hum Definition
%
Wind Dir Definition
10's deg

Wind Spd Definition
km/h
Visibility Definition
km
Stn Press Definition
kPa
Hmdx Definition


Wind Chill Definition


Weather Definition


TIME
00:00 14.7 13.6 94 21 17   100.06     LegendNANA
01:00 14.5 13.6 94 22 12   100.02     LegendNANA
02:00 14.8 13.8 94 22 15   100.01     LegendNANA
03:00 14.7 13.6 93 22 16   100.01     LegendNANA
04:00 13.8 12.9 95 21 15   100.00     LegendNANA
05:00 13.4 12.5 94 21 17   99.94     LegendNANA
06:00 14.5 14.0 97 21 18   100.00     LegendNANA
07:00 14.7 14.0 95 21 26   99.96     LegendNANA
08:00 16.1 14.5 90 20 25   99.99     LegendNANA
09:00 16.8 14.8 88 20 26   100.01     LegendNANA
10:00 17.0 15.0 88 21 24   100.04     LegendNANA
11:00 19.2 15.8 81 20 24   100.08     LegendNANA
12:00 17.9 16.0 89 21 19   100.07     LegendNANA
13:00 16.4 15.2 93 20 23   100.07     LegendNANA
14:00 16.3 15.3 94 21 23   100.07     LegendNANA
15:00 16.3 15.6 96 21 19   100.09     LegendNANA
16:00 17.1 15.9 93 21 21   100.10     LegendNANA
17:00 16.3 15.7 96 21 18   100.11     LegendNANA
18:00 15.9 15.4 97 21 22   100.11     LegendNANA
19:00 15.9 15.6 98 21 21   100.19     LegendNANA
20:00 15.9 15.6 98 21 19   100.24     LegendNANA
21:00 15.9 15.6 98 21 24   100.25     LegendNANA
22:00 15.9 15.5 97 21 21   100.30     LegendNANA
23:00 16.2 15.6 96 21 23   100.27     LegendNANA

Notes on Data Quality.

Legend

  • E = Estimated
  • M = Missing
  • NA = Not Available
  • ‡ = Partner data that is not subject to review by the National Climate Archives
Date modified: